Location: Unspecified
(0.0000°N, 0.0000°E)
Time: 06:59:24
(UTC+01:00)

H-2A R/B - Visible Passes

Search period start: 28 February 2017 00:00
Search period end: 10 March 2017 00:00
Orbit: 243 x 33173 km, 27.9° (Epoch: 27 February)

Date Brightness Start Highest point End Pass type
(mag) Time Alt. Az. Time Alt. Az. Time Alt. Az.
28 Feb 5.9 11:44:27 10° W 19:50:07 72° SE 20:44:25 25° ENE visible
01 Mar 7.1 17:40:08 10° WSW 19:26:59 26° SW 01:50:10 15° WNW visible
02 Mar 6.2 12:15:43 10° W 20:37:14 81° SE 21:14:09 35° ENE visible
03 Mar 10.3 18:30:21 10° WSW 19:55:29 18° WSW 22:24:55 10° WSW visible
04 Mar 6.0 12:47:19 10° W 21:19:56 90° NW 21:43:48 45° NE visible
05 Mar 10.9 19:52:46 10° WSW 20:23:40 11° WSW 21:00:07 10° WSW visible
06 Mar 5.9 13:19:21 10° WSW 18:29:46 61° SSW 22:13:24 53° NE visible
08 Mar 5.8 13:51:55 10° WSW 17:37:31 58° SSW 22:42:54 57° NNE visible
